Location: Bartlow
(52.0833°N, 0.3167°E)
Time: 11:20:27
(UTC+00:00)

Cosmos 2333 Rocket - Pass Details

Date: 26 September 2023
Orbit: 837 x 864 km, 70.8° (Epoch: 28 November)

Event Time Altitude Azimuth Distance (km) Brightness Sun altitude
Rises 02:28:50 0° 329° (NNW) 3,422 5.5 -29.2°
Reaches altitude 10° 02:31:29 10° 338° (NNW) 2,487 4.8 -28.9°
Maximum altitude 02:36:45 36° 45° (NE) 1,321 3.7 -28.3°
Drops below altitude 10° 02:42:01 10° 112° (ESE) 2,492 4.9 -27.7°
Sets 02:44:41 0° 121° (ESE) 3,429 5.6 -27.4°
